Flag for Germany Weather past 2 weeks in Neuburg an der Donau, Bavaria, Germany

Now
73 °F

Mild.


Feels Like: 77 °F
Forecast: 55 / 77 °F
Wind: 3 mph from South

Location: Neuburg / Donau

Current Time: Jul 31, 2014 at 8:15:49 PM

Latest Report: Jul 31, 2014 at 7:20 PM


Visibility: N/A

Pressure: 29.98 "Hg

Humidity: 53%

Dew point: 55 °F

Location of Neuburg an der DonauLocation

Historic Weather in Neuburg an der Donau — Graph

°F

Neuburg an der Donau temperature yesterday

Maximum temperature yesterday: 72 °F (at 3:20 PM)
Minimum temperature yesterday: 64 °F (at 12:20 AM)
Average temperature yesterday: 67 °F

Past Weeks' High & Low Weather Summary

 TemperatureHumidityPressure
High91 °F (Jul 19, 4:20 PM)100% (Jul 21, 8:20 PM)30.21 "Hg (Jul 21, 8:20 PM)
Low54 °F (Jul 24, 4:20 AM)23% (Jul 19, 5:20 PM)29.74 "Hg (Jul 29, 3:20 PM)
Average70 °F71%29.94 "Hg
* Reported Jul 16 6:20 PM — Jul 31 6:20 PM, Neuburg an der Donau, Weather by CustomWeather, © 2014

Note: Actual official high and low records may vary slightly from our data, if they occured in-between our weather recording intervals... More about our weather records

Advertising

Neuburg an der Donau weather history for previous 24 hours

 ConditionsComfort  
Time TempWeatherWind HumidityBarometerVisibility
6:20 PM
Jul 31
73 °FMild.1 mph50%29.98 "HgN/A
5:20 PM73 °FPartly sunny.2 mph53%29.98 "HgN/A
4:20 PM75 °FPartly sunny.2 mph50%29.98 "HgN/A
3:20 PM73 °FPartly sunny.3 mph53%29.98 "HgN/A
2:20 PM73 °FBroken clouds.5 mph53%29.98 "HgN/A
1:20 PM72 °FBroken clouds.2 mph57%30.01 "HgN/A
12:20 PM72 °FScattered clouds.6 mph61%30.01 "HgN/A
11:20 AM70 °FPartly sunny.7 mph64%30.01 "HgN/A
10:20 AM68 °FPartly sunny.6 mph73%30.01 "HgN/A
9:20 AM66 °FPartly sunny.7 mph78%30.01 "HgN/A
8:20 AM64 °FPartly sunny.7 mph88%29.98 "HgN/A
7:20 AM63 °FPartly sunny.6 mph88%29.98 "HgN/A
6:20 AM63 °FPassing clouds.3 mph88%29.95 "HgN/A
5:20 AM63 °FMild.6 mph94%29.95 "HgN/A
4:20 AM64 °FMild.6 mph88%29.92 "HgN/A
3:20 AM64 °FMild.6 mph88%29.92 "HgN/A
2:20 AM64 °FMild.8 mph88%29.92 "HgN/A
1:20 AM64 °FMild.7 mph94%29.92 "HgN/A
12:20 AM64 °FMild.8 mph94%29.92 "HgN/A
11:20 PM
Jul 30
66 °FMild.9 mph94%29.89 "HgN/A
10:20 PM68 °FMild.5 mph88%29.86 "HgN/A
9:20 PM68 °FMild.7 mph83%29.86 "HgN/A
8:20 PM68 °FMild.2 mph94%29.83 "HgN/A
Weather by CustomWeather, © 2014

See weather overviewHow to use our weather pages